Voltar ao catálogo

STARLINK-11119

AtivoComunicaçõesVLEO
NORAD 60121·PAYLOAD·🇺🇸 United States

Lançado Jun 24, 2024 de Vandenberg Space Force Base

Loading…

Próximas Passagens (próximas 24 horas)

TLE

AtualizadoSource: CelesTrak SupGP

Época: Sep 14, 2026, 20:39 UTC

1 60121C 24118J   26257.86090278  .00043861  00000+0  36113-3 0  2573
2 60121  53.1568   8.4629 0001053  86.7843  79.0268 15.69698559    10

Acompanhe STARLINK-11119 em tempo real com AllMySat

Download on the App Store